Regional Weather Roundup
Issued by NWS

Home | Current Version | Previous Version | Text Only | Print | Product List | Glossary Off
Versions: 1 2 3 4 5 6 7 8 9 10 11 12 13 14 15 16 17 18 19 20 21 22 23 24 25 26 27 28 29 30 31 32 33 34 35 36 37 38 39 40 41 42 43 44 45 46 47 48 49 50

000
ASUS45 KBOU 280307
RWRCO

WEATHER ROUNDUP FOR COLORADO
NATIONAL WEATHER SERVICE DENVER/BOULDER CO
800 PM MST FRI FEB 27 2015

NOTE: "FAIR" INDICATES FEW OR NO CLOUDS BELOW 12000 FEET WITH NO
SIGNIFICANT WEATHER AND/OR OBSTRUCTIONS TO VISIBILITY.

COZ001>005-013-030-031-280400-
...NORTHWEST COLORADO...

CITY           SKY/WX    TMP DP  RH WIND       PRES   REMARKS
CRAIG          CLEAR     24  13  62 CALM      29.76R
HAYDEN         CLEAR     19   7  58 SE5       29.75S WCI  13
MEEKER         PTCLDY    18  11  74 NE3       29.75S
MOUNT WERNER   NOT AVBL
STEAMBOAT SPGS CLEAR     18   7  61 NW3       29.75S
WALDEN         PTCLDY     3  -4  72 SE7       29.74S WCI  -9
$$

COZ006>008-011-280400-
...WEST CENTRAL VALLEYS...

CITY           SKY/WX    TMP DP  RH WIND       PRES   REMARKS
GRAND JUNCTION CLEAR     30  24  78 SE9       29.76R WCI  22
MONTROSE       PTCLDY    26  22  84 SE6       29.79R WCI  19
EAGLE          PTCLDY    27  21  80 E5        29.78S WCI  21
RIFLE          PTCLDY    29  21  72 CALM      29.77R
DELTA          PTCLDY    32  29  91 CALM      29.79R
NUCLA          CLOUDY    32  27  80 N3        29.79S
$$

COZ017>023-064>068-280400-
...SOUTHWEST COLORADO...

CITY           SKY/WX    TMP DP  RH WIND       PRES   REMARKS
DURANGO        CLOUDY    26  25  96 N3        29.78R
CORTEZ         CLOUDY    30  28  92 S3        29.78R
PAGOSA SPRINGS CLOUDY    27  27  99 CALM      29.78R
TELLURIDE      FLURRIES  22  20  93 SE6       29.74S WCI  14
WOLF CREEK PAS SNOW      10   9  92 SW14      29.73S VSB 1/2 WCI  -5
$$

COZ009-010-012-014-032>034-037-058>063-280400-
...CENTRAL COLORADO...

CITY           SKY/WX    TMP DP  RH WIND       PRES   REMARKS
ASPEN          CLOUDY    16  11  80 SW6       29.74R WCI   7
BUENA VISTA    MOCLDY     4   1  84 CALM      29.76S
COPPER MTN     LGT SNOW  12   5  73 S3        29.68S
BERTHOUD PASS  LGT SNOW   1  -4  78 NW7       29.67S WCI -11
COTTONWOOD PAS MOCLDY    18  12  79 CALM      29.72R
GUNNISON       MOCLDY    19   9  63 N5        29.77R WCI  13
KREMMLING      CLOUDY    21  12  68 SE5       29.77R WCI  15
LEADVILLE      PTCLDY     4   2  91 CALM      29.70R
SALIDA         CLOUDY    15  10  82 SE8       29.86R WCI   3
SUNLIGHT       LGT SNOW  14  12  92 CALM        N/A
WILKERSON PASS CLOUDY    10   7  85 SW5       29.71S WCI   2
$$

COZ069>075-280400-
...SAN LUIS VALLEY/SANGRE DE CRISTO MOUNTAINS...

CITY           SKY/WX    TMP DP  RH WIND       PRES   REMARKS
ALAMOSA        PTCLDY    16  12  84 CALM      29.76S
LA VETA PASS   LGT SNOW  16  12  86 MISG      29.73R
SAGUACHE       LGT SNOW  19  18  93 CALM      29.77F
$$

COZ035-036-038>040-280400-
...NORTHERN COLORADO FRONT RANGE...

CITY           SKY/WX    TMP DP  RH WIND       PRES   REMARKS
DENVER INTL AP PTCLDY     9   4  80 W6        29.91S WCI  -1
DMNS CITY PARK   N/A     13   6  73 NW2       29.93R
AURORA         MOCLDY    11   6  80 CALM      29.91S
FRONT RANGE AP NOT AVBL
ERIE MUNI ARPT PTCLDY     5   3  89 CALM      29.94S
BOULDER MUN AP PTCLDY    12   9  85 SW3       29.93S
CENTENNIAL     MOCLDY    13   7  77 NE3       29.89S
BROOMFIELD     MOCLDY     9   3  78 W3        29.91S
FORT COLLINS   PTCLDY    10   3  72 N5        29.95S WCI   2
LONGMONT       PTCLDY     7   2  80 W5        29.96S WCI  -1
$$

COZ041-046-047-076>085-087-088-280400-
...PIKES PEAK/PALMER DIVIDE AND SOUTHERN FOOTHILLS...

CITY           SKY/WX    TMP DP  RH WIND       PRES   REMARKS
COLO. SPRINGS  LGT SNOW   7   5  91 SE7       29.92R FOG     WCI  -5
A. F. ACADEMY  CLOUDY     8   3  80 SE9       29.88R WCI  -6
ELLICOTT       NOT AVBL
FALCON         LGT SNOW   1  -2  85 S5        29.88R WCI  -8
FORT CARSON    LGT SNOW  10   7  88 SE8       29.93R VSB 1   WCI  -3
LIMON          CLOUDY     6   3  87 SE18      29.98S WCI -13
MONUMENT HILL  MOCLDY     3   0  85 S10       29.83R WCI -12
TRINIDAD       MOCLDY    10   5  80 NW8       29.92R WCI  -2
$$

COZ042>045-048>051-090-091-280400-
...NORTHEAST COLORADO...

CITY           SKY/WX    TMP DP  RH WIND       PRES   REMARKS
GREELEY ARPT   PTCLDY    12   3  67 E8        29.96S WCI   1
AKRON          MOCLDY     9   5  84 S14       30.02S WCI  -7
BURLINGTON     CLOUDY    10   5  80 S17       30.11S WCI  -8
WRAY           MOCLDY    12   8  82 S10       30.14F WCI  -1
STERLING       PTCLDY    12   9  85 S10       30.06S WCI  -1
HOLYOKE        NOT AVBL
FORT MORGAN    PTCLDY    10   5  80 SE9       30.02S WCI  -4
$$

COZ086-089-092>099-280400-
...SOUTHEAST COLORADO...

CITY           SKY/WX    TMP DP  RH WIND       PRES   REMARKS
PUEBLO         LGT SNOW  14  11  87 E9        30.00R FOG     WCI   2
LA JUNTA       PTCLDY    12   6  77 E13       30.04R WCI  -3
LAMAR          CLOUDY    11   8  88 E8        30.11S WCI  -1
SPRINGFIELD      N/A     10   7  87 S23       30.07S WCI -10
$$


USA.gov is the U.S. government's official web portal to all federal, state and local government web resources and services.